QPF
0.00 0.01 0.01 0.02 0.01 0.02 0.04 0.01 0.00 0.00 0.00 0.01 0.00 0.00 0.00 0.00 0.00 0.00 0.00 0.00 0.00 0.00 0.00 0.00 0.00 0.00 0.00 0.00 0.00 0.00 0.00 0.00 0.00 0.00 0.00 0.00 0.00 0.00 0.00 0.00 0.00 0.00 0.00 0.00
0.01 0.01 0.01 0.02 0.03 0.04 0.01 0.01 0.00 0.00 0.01 0.01 0.00 0.00 0.00 0.00 0.00 0.00 0.00 0.00 0.00 0.00 0.00 0.00 0.00 0.00 0.00 0.00 0.00 0.00 0.00 0.00 0.00 0.00 0.00 0.00 0.00 0.00 0.00 0.00 0.00 0.00 0.00 0.00
0.00 0.00 0.00 0.00 0.01 0.03 0.02 0.00 0.00 0.00 0.00 0.00 0.00 0.00 0.00 0.00 0.00 0.00 0.00 0.00 0.00 0.00 0.00 0.00 0.00 0.00 0.00 0.00 0.00 0.00 0.00 0.00 0.00 0.00 0.00 0.00 0.00 0.00 0.00 0.00 0.00 0.00 0.00 0.00
0.00 0.00 0.00 0.00 0.00 0.01 0.00 0.00 0.00 0.00 0.00 0.00 0.00 0.00 0.00 0.00 0.00 0.00 0.00 0.00 0.00 0.01 0.00 0.00 0.00 0.00 0.00 0.00 0.00 0.00 0.00 0.00 0.00 0.00 0.00 0.00 0.00 0.00 0.00 0.00 0.00 0.00 0.00 0.00
0.00 0.00 0.00 0.00 0.00 0.00 0.00 0.00 0.00 0.00 0.00 0.00 0.00 0.00 0.00 0.00 0.00 0.00 0.00 0.00 0.00 0.00 0.00 0.00 0.00 0.00 0.00 0.00 0.00 0.00 0.00 0.00 0.00 0.00 0.00 0.00 0.00 0.00 0.00 0.00 0.00 0.00 0.00 0.00
0.00 0.00 0.00 0.00 0.00 0.00 0.00 0.00 0.00 0.00 0.00 0.00 0.00 0.00 0.00 0.00 0.00 0.00 0.00 0.00 0.00 0.01 0.00 0.00 0.00 0.00 0.00 0.00 0.00 0.00 0.00 0.00 0.00 0.00 0.00 0.00 0.00 0.00 0.00 0.00 0.00 0.00 0.00 0.00
0.00 0.00 0.00 0.00 0.00 0.00 0.00 0.00 0.00 0.00 0.00 0.00 0.00 0.00 0.00 0.00 0.00 0.00 0.00 0.00 0.00 0.00 0.00 0.00 0.00 0.00 0.00 0.00 0.00 0.00 0.00 0.00 0.00 0.00 0.00 0.00 0.00 0.00 0.00 0.00 0.00 0.00 0.00 0.00
0.00 0.00 0.00 0.00 0.00 0.00 0.00 0.00 0.00 0.00 0.00 0.00 0.00 0.00 0.00 0.00 0.00 0.00 0.00 0.00 0.00 0.00 0.00 0.00 0.00 0.00 0.00 0.00 0.00 0.00 0.00 0.00 0.00 0.00 0.00 0.00 0.00 0.00 0.00 0.00 0.00 0.00 0.00 0.00
0.00 0.00 0.00 0.00 0.00 0.00 0.00 0.00 0.00 0.00 0.00 0.00 0.00 0.00 0.00 0.00 0.00 0.00 0.00 0.00 0.00 0.00 0.00 0.00 0.00 0.00 0.00 0.00 0.00 0.00 0.00 0.00 0.00 0.00 0.00 0.00 0.00 0.00 0.00 0.00 0.00 0.00 0.00 0.00
0.00 0.00 0.00 0.00 0.00 0.00 0.00 0.00 0.00 0.00 0.00 0.00 0.00 0.00 0.00 0.00 0.00 0.00 0.00 0.00 0.00 0.00 0.00 0.00 0.00 0.00 0.00 0.00 0.00 0.00 0.00 0.00 0.00 0.00 0.00 0.00 0.00 0.00 0.00 0.00 0.00 0.00 0.00 0.00
0.01 0.01 0.01 0.01 0.01 0.03 0.01 0.00 0.00 0.01 0.00 0.00 0.00 0.00 0.00 0.00 0.00 0.00 0.00 0.00 0.00 0.00 0.00 0.00 0.00 0.00 0.00 0.00 0.00 0.00 0.00 0.00 0.00 0.00 0.00 0.00 0.00 0.00 0.00 0.00 0.00 0.00 0.00 0.00
0.00 0.00 0.00 0.00 0.00 0.01 0.02 0.00 0.01 0.02 0.01 0.00 0.00 0.00 0.00 0.00 0.00 0.00 0.00 0.00 0.00 0.00 0.00 0.00 0.00 0.00 0.00 0.00 0.00 0.00 0.00 0.00 0.00 0.00 0.00 0.00 0.00 0.00 0.00 0.00 0.00 0.00 0.00 0.00
0.01 0.02 0.01 0.00 0.00 0.01 0.02 0.01 0.01 0.01 0.00 0.00 0.00 0.00 0.00 0.00 0.00 0.00 0.00 0.00 0.00 0.00 0.00 0.00 0.00 0.00 0.00 0.00 0.00 0.00 0.00 0.00 0.00 0.00 0.00 0.00 0.00 0.00 0.00 0.00 0.00 0.00 0.00 0.00
0.01 0.01 0.01 0.03 0.03 0.01 0.01 0.00 0.00 0.00 0.00 0.00 0.00 0.00 0.00 0.00 0.00 0.00 0.00 0.00 0.00 0.00 0.00 0.00 0.00 0.00 0.00 0.00 0.00 0.00 0.00 0.00 0.00 0.00 0.00 0.00 0.00 0.00 0.00 0.00 0.00 0.00 0.00 0.00
0.01 0.01 0.01 0.04 0.04 0.05 0.03 0.00 0.00 0.00 0.00 0.00 0.00 0.00 0.00 0.00 0.00 0.00 0.00 0.00 0.00 0.00 0.00 0.00 0.00 0.00 0.00 0.00 0.00 0.00 0.00 0.00 0.00 0.00 0.00 0.00 0.00 0.00 0.00 0.00 0.00 0.00 0.00 0.00
0.01 0.01 0.00 0.01 0.03 0.07 0.02 0.00 0.00 0.00 0.00 0.02 0.00 0.00 0.00 0.00 0.00 0.00 0.00 0.00 0.00 0.00 0.01 0.00 0.00 0.00 0.01 0.01 0.00 0.00 0.00 0.00 0.00 0.00 0.00 0.00 0.00 0.00 0.00 0.00 0.00 0.00 0.00 0.00
0.01 0.01 0.01 0.01 0.03 0.08 0.02 0.00 0.01 0.01 0.01 0.02 0.01 0.00 0.00 0.00 0.00 0.00 0.00 0.00 0.00 0.00 0.00 0.00 0.00 0.00 0.01 0.01 0.00 0.00 0.00 0.00 0.00 0.00 0.00 0.00 0.00 0.00 0.00 0.00 0.00 0.00 0.00 0.00
0.00 0.01 0.01 0.01 0.05 0.08 0.03 0.00 0.02 0.07 0.05 0.01 0.00 0.00 0.00 0.00 0.00 0.00 0.00 0.00 0.00 0.00 0.00 0.00 0.00 0.00 0.01 0.01 0.00 0.00 0.00 0.00 0.00 0.00 0.00 0.00 0.00 0.00 0.00 0.00 0.00 0.00 0.00 0.00
0.07 0.06 0.08 0.05 0.01 0.00 0.00 0.00 0.00 0.02 0.02 0.00 0.00 0.00 0.00 0.00 0.00 0.01 0.01 0.00 0.00 0.00 0.00 0.00 0.01 0.00 0.00 0.00 0.00 0.00 0.00 0.00 0.00 0.00 0.00 0.00 0.00 0.00 0.00 0.00 0.00 0.00 0.00 0.00
0.03 0.01 0.00 0.00 0.00 0.00 0.00 0.00 0.00 0.00 0.02 0.02 0.00 0.00 0.00 0.00 0.00 0.00 0.00 0.01 0.01 0.01 0.00 0.01 0.01 0.00 0.00 0.00 0.00 0.00 0.00 0.00 0.00 0.00 0.00 0.00 0.00 0.00 0.00 0.00 0.00 0.00 0.00 0.00
0.00 0.00 0.00 0.00 0.00 0.00 0.00 0.00 0.00 0.00 0.01 0.00 0.00 0.00 0.00 0.00 0.00 0.00 0.00 0.01 0.02 0.02 0.00 0.00 0.00 0.00 0.00 0.00 0.00 0.00 0.00 0.00 0.00 0.00 0.00 0.00 0.00 0.00 0.00 0.00 0.00 0.00 0.00 0.00
0.00 0.00 0.00 0.00 0.00 0.00 0.00 0.00 0.00 0.00 0.01 0.02 0.00 0.00 0.00 0.00 0.00 0.00 0.01 0.01 0.01 0.01 0.00 0.00 0.00 0.00 0.00 0.00 0.00 0.00 0.00 0.00 0.00 0.00 0.00 0.00 0.00 0.00 0.00 0.00 0.00 0.00 0.00 0.00
0.01 0.00 0.00 0.00 0.00 0.00 0.00 0.00 0.00 0.00 0.02 0.04 0.01 0.00 0.01 0.00 0.00 0.01 0.01 0.01 0.00 0.00 0.00 0.00 0.00 0.00 0.00 0.00 0.00 0.00 0.00 0.00 0.00 0.00 0.00 0.00 0.00 0.00 0.00 0.00 0.00 0.00 0.00 0.00
0.01 0.00 0.00 0.00 0.00 0.00 0.00 0.00 0.00 0.00 0.00 0.00 0.00 0.00 0.01 0.01 0.00 0.00 0.00 0.00 0.00 0.00 0.00 0.00 0.00 0.00 0.00 0.00 0.00 0.00 0.00 0.00 0.00 0.00 0.00 0.00 0.00 0.00 0.00 0.00 0.00 0.00 0.00 0.00
0.01 0.00 0.00 0.00 0.00 0.00 0.00 0.00 0.00 0.00 0.00 0.00 0.00 0.00 0.00 0.01 0.01 0.00 0.00 0.00 0.00 0.00 0.00 0.00 0.00 0.00 0.00 0.00 0.00 0.00 0.00 0.00 0.00 0.00 0.00 0.00 0.00 0.00 0.00 0.00 0.00 0.00 0.00 0.00
0.00 0.00 0.00 0.00 0.00 0.00 0.00 0.00 0.00 0.00 0.00 0.00 0.00 0.00 0.00 0.00 0.00 0.00 0.00 0.00 0.00 0.00 0.00 0.00 0.00 0.00 0.00 0.00 0.00 0.00 0.00 0.00 0.00 0.00 0.00 0.00 0.00 0.00 0.00 0.00 0.00 0.00 0.00 0.00
0.00 0.00 0.00 0.00 0.00 0.00 0.00 0.00 0.00 0.00 0.00 0.00 0.00 0.00 0.00 0.00 0.00 0.00 0.00 0.00 0.00 0.00 0.00 0.00 0.00 0.00 0.00 0.00 0.00 0.00 0.00 0.00 0.00 0.00 0.00 0.00 0.00 0.00 0.00 0.00 0.00 0.00 0.00 0.00
MSLP
1023.25 1022.36 1022.66 1022.44 1022.21 1021.72 1021.81 1022.10 1022.30 1021.99 1021.93 1022.13 1022.02 1021.68 1021.03 1020.47 1019.91 1019.57 1019.45 1019.24 1019.15 1019.26 1019.30 1019.34 1019.32 1018.87 1018.40 1018.29 1018.06 1018.38 1018.65 1019.63 1020.18 1019.73 1018.86 1019.08 1019.60 1020.49 1021.53 1022.74 1023.12 1022.71 1021.57 1013.99
1023.38 1023.07 1022.90 1022.62 1022.44 1022.24 1022.34 1022.19 1022.16 1022.10 1022.04 1022.19 1022.10 1021.79 1021.18 1020.89 1020.41 1020.06 1020.02 1019.72 1019.38 1019.48 1019.67 1019.77 1019.22 1018.85 1018.60 1018.66 1018.57 1018.58 1018.95 1019.66 1020.26 1020.01 1019.75 1019.48 1019.86 1020.42 1020.97 1021.52 1021.97 1020.41 1020.40 1013.75
1023.61 1023.83 1023.26 1022.98 1022.78 1022.43 1022.49 1022.74 1022.74 1022.59 1022.34 1022.29 1022.36 1021.99 1021.82 1021.55 1020.87 1020.75 1020.79 1020.21 1020.07 1020.24 1020.34 1020.08 1019.68 1019.51 1019.04 1018.95 1018.95 1018.96 1019.05 1019.89 1020.53 1020.47 1020.18 1019.97 1020.21 1020.29 1020.30 1020.82 1020.96 1018.92 1016.27 1013.45
1023.79 1023.81 1023.53 1023.31 1023.01 1022.60 1022.68 1023.44 1023.31 1023.18 1022.96 1022.72 1022.69 1022.40 1022.32 1021.98 1021.76 1021.78 1021.41 1020.77 1020.92 1021.17 1020.72 1020.51 1020.16 1020.12 1020.06 1019.55 1019.79 1019.65 1019.98 1020.54 1020.54 1020.13 1020.01 1019.91 1019.60 1019.64 1019.47 1019.42 1018.38 1018.75 1014.08 1014.02
1024.33 1023.90 1023.63 1023.61 1023.22 1022.77 1023.21 1023.82 1023.90 1023.79 1023.53 1023.31 1023.17 1022.87 1022.51 1022.26 1022.11 1022.00 1021.83 1021.83 1021.38 1021.73 1021.69 1021.35 1021.08 1020.99 1020.98 1020.77 1020.68 1020.64 1021.12 1021.02 1020.97 1020.49 1019.94 1019.34 1018.50 1018.33 1017.37 1017.17 1016.69 1016.35 1015.13 1013.22
1024.37 1024.27 1023.80 1023.97 1023.64 1023.26 1023.79 1024.30 1024.36 1024.33 1023.97 1023.70 1023.57 1023.20 1023.02 1022.85 1022.63 1022.08 1021.72 1021.70 1021.93 1021.76 1021.60 1021.68 1021.49 1021.35 1021.32 1021.47 1021.55 1021.48 1021.55 1021.57 1021.38 1020.13 1019.72 1019.10 1017.40 1015.70 1015.50 1015.42 1014.91 1014.45 1013.77 1011.63
1024.68 1024.53 1024.29 1024.11 1024.06 1024.19 1024.76 1024.85 1024.96 1024.97 1024.45 1024.15 1023.92 1023.66 1023.52 1023.24 1023.01 1022.93 1022.37 1022.11 1022.05 1021.77 1021.35 1021.21 1021.02 1021.20 1021.07 1021.03 1021.02 1021.07 1021.16 1021.48 1021.62 1020.34 1019.85 1018.04 1015.42 1014.61 1014.34 1014.26 1013.28 1013.04 1012.20 1011.58
1024.73 1024.60 1024.49 1024.50 1024.45 1024.65 1025.09 1025.29 1025.44 1025.33 1025.20 1024.83 1024.33 1024.16 1024.10 1023.78 1023.75 1023.77 1023.18 1022.47 1022.24 1021.94 1021.87 1021.76 1021.46 1021.33 1021.20 1020.29 1019.80 1019.90 1020.20 1020.95 1021.11 1020.57 1019.48 1016.76 1015.56 1013.58 1013.24 1013.36 1012.21 1011.68 1011.40 1011.49
1024.68 1024.65 1024.50 1024.59 1024.64 1024.76 1025.28 1025.48 1025.58 1025.54 1025.64 1025.15 1024.83 1024.56 1024.52 1024.51 1024.37 1024.20 1023.34 1022.64 1022.30 1022.11 1022.23 1022.35 1022.42 1022.01 1021.42 1020.76 1019.82 1019.56 1019.92 1020.46 1020.91 1020.35 1019.23 1016.78 1014.23 1013.24 1012.77 1012.80 1012.02 1011.45 1011.53 1011.60
1024.60 1024.65 1024.49 1024.51 1024.57 1024.62 1025.14 1025.33 1025.42 1025.84 1026.17 1025.46 1025.10 1024.87 1024.78 1024.72 1024.83 1024.83 1024.44 1023.83 1023.02 1022.51 1022.73 1022.91 1022.62 1022.10 1021.41 1020.86 1020.11 1019.96 1020.08 1020.26 1019.86 1019.46 1018.24 1015.60 1013.80 1012.94 1012.82 1013.02 1012.13 1011.17 1011.28 1011.36
1024.33 1024.43 1024.43 1024.39 1024.38 1024.54 1025.15 1025.31 1025.27 1025.63 1025.92 1025.30 1025.01 1024.89 1024.61 1024.73 1024.90 1025.08 1024.90 1024.76 1023.88 1023.65 1023.56 1023.23 1022.48 1021.96 1020.91 1020.17 1019.53 1019.16 1019.08 1019.13 1018.76 1018.41 1017.22 1015.01 1013.02 1013.09 1012.90 1011.82 1011.20 1011.15 1011.20 1011.10
1024.05 1024.16 1024.10 1024.10 1024.13 1024.27 1024.84 1025.48 1025.29 1025.47 1025.84 1025.23 1024.53 1024.11 1023.64 1023.91 1024.03 1024.65 1024.80 1024.83 1024.31 1023.72 1023.47 1023.18 1022.78 1021.91 1020.99 1020.13 1019.32 1018.32 1017.93 1017.00 1016.72 1016.27 1014.61 1013.41 1012.90 1012.47 1011.82 1011.81 1011.65 1011.02 1011.00 1010.67
1023.68 1023.83 1023.91 1023.75 1023.76 1023.89 1024.40 1025.03 1025.29 1025.50 1025.33 1024.92 1024.68 1023.76 1022.86 1022.90 1022.92 1023.39 1024.46 1024.18 1023.78 1023.62 1023.23 1023.56 1023.15 1022.47 1021.17 1020.35 1019.03 1018.08 1016.96 1015.97 1015.55 1015.38 1013.73 1013.17 1012.59 1011.52 1011.61 1011.19 1010.75 1010.22 1010.41 1010.30
1023.41 1023.45 1023.50 1023.49 1023.55 1023.51 1023.62 1024.60 1024.72 1025.11 1025.33 1024.76 1023.50 1022.64 1022.79 1021.94 1021.99 1022.51 1022.51 1022.52 1022.77 1022.92 1023.18 1023.24 1022.79 1022.05 1020.69 1019.59 1018.66 1017.55 1016.50 1016.03 1015.18 1014.11 1013.15 1012.51 1011.93 1011.41 1011.15 1010.64 1010.16 1009.93 1009.72 1009.68
1022.95 1023.03 1023.06 1023.01 1023.15 1023.23 1023.71 1024.06 1024.05 1024.00 1024.66 1024.11 1023.61 1022.96 1021.53 1021.38 1021.45 1021.37 1021.72 1022.25 1022.52 1022.94 1022.98 1022.31 1021.40 1020.67 1020.64 1019.13 1018.50 1016.00 1015.40 1014.30 1014.29 1012.86 1011.76 1011.90 1011.27 1010.88 1010.66 1010.58 1010.10 1009.51 1009.76 1009.69
1022.59 1022.68 1022.66 1022.68 1022.76 1023.01 1023.79 1024.07 1023.27 1023.22 1023.54 1023.91 1023.59 1022.66 1021.57 1020.68 1020.65 1020.90 1021.39 1021.56 1022.02 1022.06 1021.68 1020.70 1019.90 1019.25 1019.17 1017.39 1015.18 1011.96 1012.51 1012.92 1012.63 1011.70 1010.21 1010.99 1010.41 1010.36 1010.02 1009.96 1009.41 1009.20 1009.39 1009.45
1022.27 1022.25 1022.20 1022.21 1022.27 1023.16 1023.34 1023.08 1022.90 1022.88 1023.32 1023.81 1023.43 1022.26 1020.93 1020.58 1020.70 1020.51 1020.37 1020.31 1020.44 1020.40 1020.12 1018.87 1018.19 1017.54 1017.54 1015.97 1013.45 1006.89 1011.29 1010.98 1010.41 1009.87 1010.16 1010.30 1010.07 1009.90 1009.25 1009.11 1008.80 1008.87 1009.08 1009.27
1021.73 1021.68 1021.68 1021.76 1021.84 1021.98 1022.30 1022.04 1022.13 1022.60 1023.39 1023.35 1023.04 1022.47 1021.68 1020.36 1020.30 1020.19 1019.32 1019.33 1019.18 1018.48 1017.64 1016.44 1015.93 1016.12 1016.02 1013.23 1007.78 1009.18 1009.47 1009.64 1009.38 1009.14 1009.05 1009.08 1009.19 1009.25 1009.06 1009.01 1008.85 1008.94 1009.00 1009.10
1021.36 1021.28 1021.21 1021.94 1022.11 1022.10 1021.49 1021.04 1021.16 1021.74 1022.95 1023.01 1022.67 1022.35 1021.28 1019.91 1019.69 1019.22 1018.57 1017.99 1017.03 1015.78 1015.12 1014.44 1014.36 1013.20 1010.98 1008.13 1008.04 1007.64 1007.43 1007.65 1007.38 1007.56 1008.08 1008.40 1008.86 1008.66 1008.83 1008.94 1008.91 1008.92 1008.74 1008.81
1021.12 1021.50 1021.88 1022.06 1021.79 1021.24 1021.24 1021.44 1021.93 1022.14 1021.95 1021.82 1021.27 1020.99 1019.80 1019.42 1019.05 1018.35 1018.02 1016.68 1015.66 1014.11 1012.26 1011.94 1011.13 1009.03 1007.66 1006.96 1006.12 1005.70 1005.78 1006.13 1006.55 1007.34 1007.73 1008.14 1008.44 1008.43 1008.50 1008.61 1008.69 1008.73 1008.57 1008.55
1021.55 1021.90 1022.10 1021.70 1021.35 1021.63 1022.39 1022.80 1023.09 1022.26 1021.39 1020.19 1019.05 1018.78 1018.46 1017.97 1017.97 1017.65 1017.44 1015.74 1013.87 1012.64 1010.72 1010.48 1008.73 1006.87 1004.89 1004.58 1004.73 1004.50 1005.15 1005.52 1005.84 1006.27 1006.42 1006.83 1007.21 1007.64 1008.04 1008.46 1008.62 1008.73 1008.71 1008.75
1021.39 1021.63 1021.80 1021.97 1022.30 1023.18 1023.96 1023.86 1023.41 1022.32 1020.31 1018.42 1017.92 1017.71 1017.47 1016.79 1016.14 1015.86 1015.30 1014.46 1013.54 1011.38 1009.89 1009.13 1007.65 1005.27 1005.00 1004.81 1004.17 1003.71 1004.46 1005.08 1005.68 1006.04 1006.43 1006.81 1007.13 1007.36 1007.82 1008.30 1008.79 1008.91 1008.95 1008.92
1021.42 1021.66 1022.39 1023.06 1023.69 1024.20 1024.52 1024.04 1023.20 1021.52 1019.82 1018.76 1018.04 1017.27 1016.40 1015.36 1015.08 1014.64 1013.75 1012.44 1010.89 1009.83 1009.20 1008.11 1006.63 1005.62 1005.56 1005.43 1005.15 1004.72 1004.60 1005.03 1005.65 1006.30 1006.69 1007.10 1007.72 1007.99 1008.22 1008.61 1008.83 1009.01 1009.18 1009.13
1021.40 1022.16 1023.02 1023.64 1024.01 1023.80 1023.05 1022.36 1021.32 1020.18 1019.26 1018.44 1017.98 1017.25 1016.37 1014.32 1013.73 1012.66 1011.49 1010.22 1009.52 1009.16 1008.99 1007.85 1006.93 1006.60 1006.46 1006.35 1006.20 1005.97 1006.06 1006.00 1006.32 1006.83 1007.39 1007.87 1008.37 1008.71 1008.90 1009.00 1009.13 1009.28 1009.45 1009.43
1021.50 1022.30 1023.09 1023.40 1022.59 1022.41 1021.73 1021.18 1020.48 1019.36 1018.64 1018.34 1017.48 1016.48 1015.46 1013.38 1011.54 1010.88 1010.09 1009.61 1009.29 1008.79 1008.01 1007.67 1007.37 1007.21 1007.22 1007.18 1007.09 1007.10 1007.16 1007.21 1007.42 1007.80 1008.24 1008.83 1009.10 1009.34 1009.66 1009.68 1009.64 1009.70 1009.78 1009.92
1021.58 1022.21 1022.47 1022.72 1022.95 1022.28 1021.60 1020.76 1020.11 1019.10 1018.68 1018.42 1017.71 1016.40 1014.50 1011.92 1010.60 1009.58 1009.27 1009.34 1008.88 1008.48 1008.35 1008.25 1008.04 1007.92 1008.00 1007.88 1007.97 1007.94 1007.96 1008.14 1008.37 1008.64 1008.98 1009.28 1009.57 1009.88 1010.18 1010.32 1010.39 1010.44 1010.49 1010.72
1022.04 1022.10 1022.03 1022.23 1022.28 1021.80 1021.01 1020.24 1019.52 1018.79 1018.82 1018.42 1017.87 1016.30 1013.28 1011.90 1009.92 1009.63 1009.57 1009.73 1009.69 1009.30 1008.88 1008.65 1008.51 1008.57 1008.52 1008.48 1008.60 1008.61 1008.73 1009.02 1009.25 1009.48 1009.74 1010.03 1010.29 1010.54 1010.89 1011.23 1011.57 1011.46 1011.63 1011.73
Thickness
5443 5450 5441 5440 5438 5442 5440 5439 5437 5445 5447 5451 5452 5457 5477 5490 5498 5501 5504 5509 5512 5513 5515 5514 5516 5519 5524 5526 5529 5528 5529 5504 5495 5517 5529 5524 5520 5506 5489 5477 5460 5460 5439 5529
5434 5433 5432 5433 5432 5433 5432 5434 5436 5436 5439 5443 5442 5452 5465 5473 5484 5490 5491 5494 5503 5505 5505 5501 5499 5508 5514 5512 5516 5515 5517 5502 5480 5495 5512 5516 5509 5497 5495 5482 5455 5491 5443 5521
5427 5418 5422 5422 5422 5424 5424 5423 5426 5428 5431 5435 5436 5443 5446 5450 5466 5472 5469 5480 5485 5485 5485 5491 5492 5495 5503 5499 5503 5507 5505 5491 5494 5481 5499 5504 5492 5494 5494 5481 5463 5492 5507 5518
5419 5414 5415 5414 5414 5417 5417 5411 5415 5417 5418 5424 5423 5431 5432 5439 5446 5442 5452 5465 5458 5455 5470 5470 5473 5478 5474 5485 5479 5482 5480 5472 5472 5485 5485 5483 5484 5481 5490 5481 5492 5474 5525 5511
5403 5407 5408 5405 5407 5410 5409 5405 5406 5406 5405 5412 5414 5419 5428 5431 5433 5438 5438 5436 5449 5437 5443 5451 5454 5451 5455 5457 5459 5463 5461 5463 5463 5471 5478 5478 5486 5489 5496 5493 5495 5491 5496 5506
5397 5395 5400 5395 5397 5401 5399 5393 5393 5395 5402 5405 5408 5413 5413 5417 5418 5428 5434 5434 5427 5429 5433 5431 5438 5442 5443 5444 5442 5448 5451 5450 5456 5469 5472 5468 5487 5503 5505 5503 5500 5502 5499 5533
5384 5384 5385 5386 5385 5386 5382 5382 5381 5382 5392 5396 5401 5403 5404 5407 5411 5412 5415 5419 5418 5424 5424 5428 5432 5427 5434 5438 5438 5444 5445 5444 5438 5453 5461 5465 5503 5506 5504 5502 5513 5507 5513 5520
5374 5374 5374 5374 5373 5371 5371 5369 5368 5369 5362 5376 5385 5389 5387 5392 5390 5391 5398 5406 5408 5410 5417 5415 5418 5423 5426 5435 5442 5445 5447 5440 5425 5433 5442 5484 5489 5510 5516 5511 5519 5520 5518 5512
5364 5363 5365 5363 5362 5360 5359 5357 5358 5359 5351 5357 5368 5371 5372 5368 5368 5373 5386 5392 5396 5403 5398 5404 5389 5406 5419 5426 5437 5435 5430 5432 5428 5424 5441 5454 5493 5509 5510 5501 5508 5513 5511 5505
5355 5353 5355 5354 5352 5352 5350 5348 5350 5345 5340 5347 5355 5352 5350 5356 5355 5354 5358 5369 5377 5387 5379 5383 5385 5394 5410 5409 5423 5430 5417 5407 5423 5425 5437 5460 5480 5494 5497 5482 5498 5508 5508 5499
5346 5345 5345 5345 5345 5342 5340 5338 5340 5338 5337 5339 5342 5345 5344 5343 5341 5336 5344 5345 5352 5357 5352 5370 5382 5380 5390 5399 5411 5412 5416 5404 5411 5418 5424 5449 5485 5479 5479 5488 5496 5501 5500 5500
5338 5336 5336 5336 5335 5332 5330 5325 5327 5325 5325 5330 5335 5337 5339 5340 5339 5332 5331 5336 5343 5347 5360 5355 5361 5380 5375 5383 5392 5404 5409 5427 5415 5421 5442 5462 5468 5470 5478 5478 5484 5492 5497 5496
5329 5326 5325 5325 5323 5321 5319 5315 5313 5310 5314 5317 5318 5327 5335 5334 5331 5329 5322 5324 5331 5333 5335 5329 5338 5338 5354 5363 5389 5393 5403 5413 5414 5417 5450 5454 5467 5480 5471 5479 5484 5494 5491 5493
5318 5316 5314 5312 5310 5308 5307 5303 5301 5295 5294 5302 5314 5317 5318 5323 5322 5320 5325 5326 5322 5323 5317 5311 5317 5324 5347 5350 5367 5377 5397 5399 5403 5406 5428 5436 5450 5460 5464 5475 5485 5482 5490 5494
5305 5302 5300 5298 5294 5291 5288 5288 5286 5281 5274 5284 5293 5300 5314 5310 5309 5314 5312 5308 5307 5303 5304 5310 5322 5326 5327 5342 5339 5366 5387 5400 5390 5410 5433 5428 5447 5449 5453 5462 5473 5481 5485 5490
5288 5285 5282 5280 5277 5271 5266 5264 5272 5267 5266 5266 5260 5280 5294 5301 5301 5300 5295 5292 5288 5290 5299 5307 5317 5332 5323 5332 5349 5406 5400 5391 5397 5409 5435 5424 5437 5440 5449 5461 5473 5477 5482 5483
5270 5267 5266 5265 5263 5257 5252 5253 5257 5256 5249 5247 5236 5260 5287 5291 5289 5286 5281 5285 5289 5292 5296 5309 5322 5331 5326 5330 5349 5431 5391 5400 5407 5415 5416 5417 5430 5435 5445 5454 5469 5476 5479 5479
5257 5256 5255 5254 5253 5252 5252 5253 5249 5245 5239 5240 5245 5248 5256 5273 5263 5263 5281 5289 5288 5297 5307 5321 5328 5327 5323 5342 5410 5402 5402 5400 5404 5410 5411 5423 5424 5427 5435 5448 5461 5468 5473 5476
5248 5248 5249 5244 5243 5244 5246 5248 5248 5248 5235 5222 5234 5229 5231 5265 5265 5275 5288 5294 5307 5316 5321 5329 5335 5342 5359 5391 5397 5404 5410 5410 5416 5419 5421 5416 5418 5429 5432 5442 5454 5464 5471 5476
5243 5241 5237 5237 5239 5242 5243 5239 5229 5240 5235 5241 5245 5242 5254 5261 5270 5274 5283 5297 5313 5320 5349 5350 5356 5378 5397 5404 5411 5419 5419 5417 5418 5409 5406 5408 5417 5428 5434 5442 5452 5460 5469 5475
5234 5232 5230 5233 5235 5231 5217 5203 5224 5211 5232 5250 5264 5270 5271 5279 5278 5282 5288 5304 5327 5335 5360 5363 5381 5395 5419 5424 5423 5424 5417 5415 5418 5424 5429 5429 5433 5431 5438 5442 5449 5455 5462 5467
5229 5227 5227 5225 5217 5207 5203 5196 5204 5227 5248 5269 5276 5278 5281 5288 5298 5305 5309 5315 5323 5339 5361 5375 5388 5411 5404 5402 5417 5432 5429 5421 5420 5420 5423 5426 5430 5436 5439 5444 5446 5451 5456 5462
5225 5223 5214 5206 5201 5197 5193 5166 5191 5213 5250 5259 5267 5274 5286 5299 5301 5307 5317 5331 5349 5353 5371 5377 5394 5400 5394 5394 5401 5409 5414 5417 5416 5415 5419 5422 5424 5429 5436 5440 5443 5448 5451 5457
5223 5215 5210 5203 5167 5206 5203 5209 5227 5244 5251 5265 5266 5274 5282 5307 5308 5321 5342 5350 5355 5366 5368 5377 5373 5380 5385 5389 5393 5401 5403 5408 5410 5412 5416 5419 5421 5425 5430 5435 5440 5445 5449 5453
5218 5209 5206 5192 5209 5197 5214 5224 5241 5252 5257 5259 5268 5277 5286 5312 5336 5335 5350 5352 5350 5363 5378 5370 5367 5376 5377 5381 5385 5388 5391 5395 5398 5402 5405 5405 5412 5418 5423 5428 5435 5441 5444 5446
5211 5205 5197 5202 5208 5209 5210 5224 5239 5248 5254 5260 5266 5278 5298 5336 5347 5358 5359 5352 5362 5371 5361 5362 5368 5372 5369 5372 5374 5377 5382 5387 5393 5399 5404 5408 5413 5416 5417 5421 5425 5430 5434 5435
5200 5207 5200 5199 5197 5204 5214 5224 5237 5250 5253 5257 5268 5286 5324 5323 5359 5355 5351 5347 5352 5353 5357 5358 5362 5361 5360 5363 5366 5371 5376 5380 5386 5392 5397 5401 5405 5408 5411 5413 5412 5418 5420 5422